Simultaneous Nadir Overpasses (SNOs) Predictions

Prediction of SNOs near US between NOAA-19 and NPP Satellite Orbit:

Table of predicted SNOs near US for the next 10.0 days since TLE Epoch: 2/11/2012
<
Index Date (NOAA-19) Time (NOAA-19) NOAA-19 Lat,Lon Date (NPP) Time (NPP) NPP Lat,Lon Distance(km) Time Diff (sec)
1 02/20/2012 06:31:36 47.92, -65.05 02/20/2012 06:35:36 48.47, -67.93 222.77 240
2 02/20/2012 08:13:06 49.94, -89.68 02/20/2012 08:16:31 50.48, -92.42 204.28 205
3 02/20/2012 09:55:11 49.91,-115.22 02/20/2012 09:58:01 50.42,-117.83 194.33 170
4 02/20/2012 18:03:17 49.82, -78.42 02/20/2012 18:03:20 49.52, -80.05 122.22 3
5 02/20/2012 19:45:25 49.97,-104.01 02/20/2012 19:44:53 49.70,-105.51 111.52 32
6 02/20/2012 21:24:03 38.02,-125.00 02/20/2012 21:22:56 37.72,-126.44 130.94 67
7 02/21/2012 06:27:07
